Lexington Weather

Lexington, Massachusetts, USA

43°F
9/20/2020 10:50pm 
  • Lexington Conditions: Clear
  • Temperature: 43.2°F / 6.2°CColder 1.6°F than last hour.
  • Dew Point: 37.0°FDecreased 0.9°Fsince last hour.
  • Relative Humidity: 79%Increased 2.0% since last hour.
  • Wind: Calm, 10-min avg: Calm, gust: None
  • Barometer: 30.53 in Steady
  • Visibility: 10 miles
  • Rain Today: 0.00 in
  •   
Southeast Middlesex County - Special Weather Statement - Special Weather Statement
 - SEE ALL NEARBY ALERTS -

Regional Weather Roundup
for Boston / Norton, MA

        
000
ASUS41 KBOX 160804
RWRBOX

REGIONAL WEATHER ROUNDUP
NATIONAL WEATHER SERVICE BOSTON/NORTON MA
400 AM EDT WED SEP 16 2020

NOTE:  "FAIR" INDICATES FEW OR NO CLOUDS BELOW 12,000 FEET WITH NO 
SIGNIFICANT WEATHER AND/OR OBSTRUCTIONS TO VISIBILITY.

MAZALL-160900-
EASTERN MASSACHUSETTS
  
CITY           SKY/WX    TMP DP  RH WIND       PRES   REMARKS
BOSTON         CLEAR     52  46  80 SW9       30.24S                  
BEVERLY        CLEAR     50  45  83 S3        30.22F                  
LAWRENCE       CLEAR     49  45  86 S6        30.24F                  
BEDFORD        CLEAR     45  42  89 CALM      30.22F                  
BLUE HILL        N/A     49  47  93 SW14      30.22F                  
NORWOOD        FOG       40  38  93 CALM      30.24S VSB 1/4          
MARSHFIELD     CLEAR     52  52 100 SW3       30.24F                  
PLYMOUTH       CLEAR     47  45  93 CALM      30.25S                  
TAUNTON        CLEAR     43  40  89 CALM      30.25S                  
NEW BEDFORD    CLEAR     43  42  97 CALM      30.25S FOG              
$$

MAZALL-160900-
CAPE COD AND THE ISLANDS
  
CITY           SKY/WX    TMP DP  RH WIND       PRES   REMARKS
FALMOUTH       MOCLDY    45  43  93 CALM      30.26S                  
HYANNIS        PTCLDY    46  44  93 CALM      30.24F                  
CHATHAM        CLEAR     57  51  80 SW5       30.27S                  
PROVINCETOWN   CLEAR     56  52  86 SW7       30.25F                  
NANTUCKET      CLEAR     48  44  86 CALM      30.26F                  
MARTHAS VNYRD  CLEAR     38  35  89 CALM      30.26S                  
$$
 
MAZALL-160900-
CENTRAL AND WESTERN MASSACHUSETTS
  
CITY           SKY/WX    TMP DP  RH WIND       PRES   REMARKS
WORCESTER      CLEAR     51  47  86 SW14      30.22F                  
FITCHBURG      CLEAR     45  41  86 CALM      30.22F                  
ORANGE         CLEAR     40  40 100 CALM      30.23F                  
SPRINGFIELD    NOT AVBL                                               
WESTFIELD      CLEAR     43  42  97 S5        30.23F                  
NORTH ADAMS    CLEAR     44  41  89 VRB3      30.21F                  
PITTSFIELD     FOG       41  40  96 CALM      30.21S VSB 1/4          
$$
 
RIZALL-160900-
RHODE ISLAND
  
CITY           SKY/WX    TMP DP  RH WIND       PRES   REMARKS
PROVIDENCE     CLEAR     50  47  89 CALM      30.26S                  
NEWPORT        PTCLDY    51  48  89 CALM      30.25S                  
BLOCK ISLAND   MOCLDY    58  50  75 SW7       30.26S                  
SMITHFIELD     CLEAR     49  49 100 SW3       30.25F                  
WESTERLY       CLEAR     44  41  89 CALM      30.26S                  
$$
 
CTZALL-160900-
CONNECTICUT
  
CITY           SKY/WX    TMP DP  RH WIND       PRES   REMARKS
BRADLEY INTL   MOCLDY    47  44  90 S3        30.23F                  
HARTFORD       CLEAR     51  47  86 S3        30.24F                  
BRIDGEPORT     PTCLDY    56  50  80 CALM      30.24F                  
DANBURY        CLEAR     45  43  93 CALM      30.26S                  
GROTON         CLEAR     60  49  66 SW13      30.24F                  
NEW HAVEN      PTCLDY    51  49  92 CALM      30.25S                  
CHESTER        FAIR      50  48  93 CALM      30.25F                  
MERIDEN        CLEAR     44  41  89 CALM      30.25F                  
WILLIMANTIC    FOG       43  42  97 CALM      30.25F VSB 3/4          
OXFORD         CLEAR     48  47  96 CALM      30.25F                  
$$

MEZ002-015-021-024-NHZ003-005-008-011-012-014-VTZ005-008-160900-
NORTHERN NEW ENGLAND
  
CITY           SKY/WX    TMP DP  RH WIND       PRES   REMARKS
PORTLAND ME    CLEAR     50  45  83 CALM      30.19F                  
BANGOR ME      PTCLDY    50  45  83 SE7       30.19S                  
CONCORD NH     CLEAR     40  37  89 CALM      30.20F                  
MANCHESTER NH  CLEAR     49  43  80 S6        30.19F                  
NASHUA NH      CLEAR     47  46  97 CALM      30.22F                  
PORTSMOUTH NH  CLEAR     49  42  79 SW6       30.18                   
JAFFREY NH     CLEAR     42  39  89 CALM      30.21F                  
KEENE NH       CLEAR     38  38 100 CALM      30.22F                  
BURLINGTON VT  CLEAR     55  42  61 S8        30.11F                  
MT. WASHINGTON CLOUDY    43  -6  13 W36G49      N/A  WCI  31          
$$

NYZ052-076-160900-
EASTERN NEW YORK
  
CITY           SKY/WX    TMP DP  RH WIND       PRES   REMARKS
ALBANY         MOCLDY    45  44  97 CALM      30.20S                  
NEW YORK CITY  MOCLDY    61  48  62 S3        30.24F                  
$$
 
ANZALL-160900-
MARINE OBSERVATIONS
  
STATION/POSITION TIME  TEMP    WIND        PRES    VSBY  WAVE
                       AIR SEA DIR/SP/G                  HT/PER
                 (UTC) (F)     (DEG/KT/KT) (MB)    (MI)  (FT/S)
BOSTON BUOY      0750   59 63  200/ 14/ 16 1022.8F         2/10
BUZZARDS BAY     0700          220/ 11/ 12 1025.4F
NANTUCKET SOUND  0740      70  210/  8/ 14   N/A
MASS BAY-STELLWA 0704   59     260/ 14/ 16 1021.7F  1 7/8
ISLE OF SHOALS   0700   57     230/ 17/ 20 1022.5F
S OF BLOCK IS    0726      70                N/A           3/12
$$

......................KEY.........................
  SKY/WX - SKY CONDITION/PRESENT WEATHER
  TMP    - TEMPERATURE IN FAHRENHEIT
  DWPT   - DEWPOINT IN FAHRENHEIT
  RH     - RELATIVE HUMIDITY IN PERCENT
  WIND   - DIRECTION AND SPEED IN MPH
  PRES   - MEAN SEA LEVEL PRESSURE IN INCHES OF HG
  WCI    - WIND CHILL INDEX
  VSB    - VISIBILITY IN MILES
  HX     - HEAT INDEX
  TC     - TEMPERATURE IN CELSIUS
  VRB    - VARIABLE WIND DIRECTION
  N/A    - NOT AVAILABLE
  
      

Other recent Regional Weather Roundups

Sun Sep 20, 10:04pm

Sun Sep 20, 9:04pm

Sun Sep 20, 8:05pm

Sun Sep 20, 7:04pm

Sun Sep 20, 6:04pm

Sun Sep 20, 5:04pm

Sun Sep 20, 4:04pm

Sun Sep 20, 3:05pm

Sun Sep 20, 2:05pm

Sun Sep 20, 1:04pm

Sun Sep 20, 12:04pm

Sun Sep 20, 11:04am

Sun Sep 20, 10:04am

Sun Sep 20, 9:04am

Sun Sep 20, 8:04am

Sun Sep 20, 7:04am

Sun Sep 20, 6:04am

Sun Sep 20, 5:04am

Sun Sep 20, 4:04am

Sun Sep 20, 3:05am

Sun Sep 20, 2:04am

Sun Sep 20, 1:04am

Sun Sep 20, 12:04am

Sat Sep 19, 11:04pm

Sat Sep 19, 10:04pm

Sat Sep 19, 9:04pm

Sat Sep 19, 8:05pm

Sat Sep 19, 7:04pm

Sat Sep 19, 6:05pm

Sat Sep 19, 5:04pm

Sat Sep 19, 4:04pm

Sat Sep 19, 3:04pm

Sat Sep 19, 2:04pm

Sat Sep 19, 1:05pm

Sat Sep 19, 12:04pm

Sat Sep 19, 11:04am

Sat Sep 19, 10:04am

Sat Sep 19, 9:05am

Sat Sep 19, 8:04am

Sat Sep 19, 7:04am

Sat Sep 19, 6:04am

Sat Sep 19, 5:04am

Sat Sep 19, 4:04am

Sat Sep 19, 3:04am

Sat Sep 19, 2:04am

Sat Sep 19, 1:04am

Sat Sep 19, 12:04am

Fri Sep 18, 11:05pm

Fri Sep 18, 10:04pm

Fri Sep 18, 9:04pm

Fri Sep 18, 8:04pm

Fri Sep 18, 7:04pm

Fri Sep 18, 6:04pm

Fri Sep 18, 5:05pm

Fri Sep 18, 4:04pm

Fri Sep 18, 3:05pm

Fri Sep 18, 2:04pm

Fri Sep 18, 1:04pm

Fri Sep 18, 12:04pm

Fri Sep 18, 11:05am

Fri Sep 18, 10:05am

Fri Sep 18, 9:04am

Fri Sep 18, 8:04am

Fri Sep 18, 7:04am

Fri Sep 18, 6:04am

Fri Sep 18, 5:04am

Fri Sep 18, 4:04am

Fri Sep 18, 3:04am

Fri Sep 18, 2:04am

Fri Sep 18, 1:04am

Fri Sep 18, 12:04am

Thu Sep 17, 11:05pm

Thu Sep 17, 10:04pm

Thu Sep 17, 9:04pm

Thu Sep 17, 8:05pm

Thu Sep 17, 7:04pm

Thu Sep 17, 6:04pm

Thu Sep 17, 5:04pm

Thu Sep 17, 4:04pm

Thu Sep 17, 3:05pm

Thu Sep 17, 2:04pm

Thu Sep 17, 1:04pm

Thu Sep 17, 12:04pm

Thu Sep 17, 11:04am

Thu Sep 17, 10:04am

Thu Sep 17, 9:04am

Thu Sep 17, 8:04am

Thu Sep 17, 7:04am

Thu Sep 17, 6:04am

Thu Sep 17, 5:04am

Thu Sep 17, 4:04am

Thu Sep 17, 3:04am

Thu Sep 17, 2:05am

Thu Sep 17, 1:05am

Thu Sep 17, 12:04am

Wed Sep 16, 11:04pm

Wed Sep 16, 10:04pm

Wed Sep 16, 9:04pm

Wed Sep 16, 8:05pm

Wed Sep 16, 7:04pm

Wed Sep 16, 6:04pm

Wed Sep 16, 5:04pm

Wed Sep 16, 4:04pm

Wed Sep 16, 3:04pm

Wed Sep 16, 2:04pm

Wed Sep 16, 1:04pm

Wed Sep 16, 12:04pm

Wed Sep 16, 11:04am

Wed Sep 16, 10:04am

Wed Sep 16, 9:04am

Wed Sep 16, 8:04am

Wed Sep 16, 7:04am

Wed Sep 16, 6:04am

Wed Sep 16, 5:04am

Wed Sep 16, 3:04am

Wed Sep 16, 2:04am

Wed Sep 16, 1:04am

Wed Sep 16, 12:05am

Tue Sep 15, 11:04pm

Tue Sep 15, 10:04pm

Tue Sep 15, 9:04pm

Tue Sep 15, 8:04pm

Tue Sep 15, 7:04pm

Tue Sep 15, 6:04pm

Tue Sep 15, 5:04pm

Tue Sep 15, 4:05pm

Tue Sep 15, 3:04pm

Tue Sep 15, 2:04pm

Tue Sep 15, 1:04pm

Tue Sep 15, 12:04pm

Tue Sep 15, 11:04am

Tue Sep 15, 10:04am

Tue Sep 15, 9:04am

Tue Sep 15, 8:04am

Tue Sep 15, 7:04am

Tue Sep 15, 6:04am

Tue Sep 15, 5:04am

Tue Sep 15, 4:04am

Tue Sep 15, 3:04am

Tue Sep 15, 2:04am

Tue Sep 15, 1:04am

Tue Sep 15, 12:05am

Mon Sep 14, 11:04pm

Mon Sep 14, 10:04pm

Mon Sep 14, 9:04pm

Mon Sep 14, 8:04pm

Mon Sep 14, 7:04pm

Mon Sep 14, 6:04pm

Mon Sep 14, 5:04pm

Mon Sep 14, 4:05pm

Mon Sep 14, 3:04pm

Mon Sep 14, 2:05pm

Mon Sep 14, 1:04pm

Mon Sep 14, 12:04pm

Mon Sep 14, 11:04am

Mon Sep 14, 10:05am

Mon Sep 14, 9:04am

Mon Sep 14, 8:04am

Mon Sep 14, 7:04am

Mon Sep 14, 6:04am

Mon Sep 14, 5:04am

Mon Sep 14, 4:04am

Mon Sep 14, 3:04am

Mon Sep 14, 2:04am

Mon Sep 14, 1:04am

Mon Sep 14, 12:04am

Sun Sep 13, 11:05pm

Meta data:

ID: be3e380e-81e0-4157-976e-10ea0776f586
Link: https://api.weather.gov/products/be3e380e-81e0-4157-976e-10ea0776f586